Location: Newark
(34.9471°N, 136.1778°E)
Time: 09:46:05
(UTC+00:00)

METEOR M2 - Pass Details

Date: 21 February 2020
Orbit: 818 x 828 km, 98.5° (Epoch: 07 April)

Event Time Altitude Azimuth Distance (km) Brightness Sun altitude
Exits shadow 11:53:18 17° 243° (WSW) 1,998 ? -39.4°
Maximum altitude 11:55:00 19° 266° (W) 1,872 ? -39.8°
Drops below altitude 10° 11:58:45 10° 311° (NW) 2,433 ? -40.5°
Sets 12:01:50 0° 329° (NNW) 3,372 ? -41.1°
